Regional Weather Roundup
Issued by NWS Grand Forks, ND

Home | Current Version | Previous Version | Graphics & Text | Print | Product List | Glossary On
Versions: 1 2 3 4 5 6 7 8 9 10 11 12 13 14 15 16 17 18 19 20 21 22 23 24 25 26 27 28 29 30 31 32 33 34 35 36 37 38 39 40 41 42 43 44 45 46 47 48 49 50
744
ASUS43 KFGF 210210
RWRFGF
PRAIRIE TO PINES  WEATHER ROUNDUP
NATIONAL WEATHER SERVICE EASTERN NORTH DAKOTA/GRAND FORKS ND
900 PM CDT SUN AUG 20 2017

 **SATELLITE DATA USED TO AUGMENT SKY COVER AT AUTOMATED STATIONS**
 *****  WEATHER ACROSS EASTERN NORTH DAKOTA  *****

CITY           SKY/WX    TMP DP  RH WIND       PRES   REMARKS
GRAND FORKS    FAIR      61  54  77 W5        29.99R HAZE
GRAND FRKS AFB FAIR      60  52  73 CALM      30.00R
DEVILS LAKE    FAIR      65  49  56 S5        30.02
FARGO          FAIR      65  53  65 SW6       30.01R
WAHPETON ARPT  FAIR      63  54  72 CALM      30.03R
$$

 ***** WEATHER ACROSS CENTRAL AND WESTERN NORTH DAKOTA  *****

CITY           SKY/WX    TMP DP  RH WIND       PRES   REMARKS
BISMARCK       MOCLDY    63  57  81 SE5       30.03S
MINOT          FAIR      70  43  37 S8        29.98S
JAMESTOWN      FAIR      63  58  83 CALM      30.03R
MINOT AFB        N/A     64  45  49 S8        29.97R
GARRISON         N/A     63  50  62 S7        30.01R
WILLISTON      MOCLDY    72  44  36 S7        29.96S
DICKINSON      FAIR      61  47  59 SE12      30.00S
HETTINGER      FAIR      63  45  51 E13       30.02F
$$

 *****  OTHER AIRPORT OBSERVATIONS IN OUR AREA  *****

CITY           SKY/WX    TMP DP  RH WIND       PRES   REMARKS
WALHALLA       FAIR      66  64  94 CALM      29.98R
GRAFTON AIRPOR FAIR      64  54  68 W3        30.00R
VALLEY CITY AR   N/A     61  54  77 CALM      30.05R
CANDO          FAIR      59  52  77 CALM      30.02S
CAVALIER APRT  FAIR      61  52  72 SW3       29.98R
GWINNER        CLEAR     63  57  82 CALM      30.03R
SHEYENNE NWR     N/A     64  57  77 CALM      29.95S
ROLLA          FAIR      57  52  82 CALM      30.01S
 ***** THE ABOVE OBSERVATIONS ARE NON NWS ARE NOT QUALITY
       CONTROLLED AND MAY MIS-REPORT RAIN FOR SNOW...
$$

  *****  WEATHER ACROSS NORTHERN MINNESOTA  *****

CITY           SKY/WX    TMP DP  RH WIND       PRES   REMARKS
FLAG ISLAND    FAIR      68  48  49 CALM      29.96R HAZE
WARROAD        FAIR      61  54  77 CALM      29.98R
ROSEAU         FAIR      66  48  52 W3        29.98R
HALLOCK        FAIR      63  46  55 SW3       29.98R
THF RVR FALLS  FAIR      62  47  57 CALM      30.01R
BAUDETTE       FAIR      62  49  62 W6        29.98R
WASKISH        FAIR      70  52  52 W7        29.99R
CROOKSTON      FAIR      66  46  48 CALM      30.00S
STEPHEN NDAWN    N/A     61  48  63 SW3         N/A
GREENBUSH NDAW   N/A     57  50  77 SW3         N/A
$$
  *****  WEATHER ACROSS CENTRAL AND WEST MINNESOTA  *****

CITY           SKY/WX    TMP DP  RH WIND       PRES   REMARKS
FOSSTON        FAIR      59  45  58 CALM      30.02S
BEMIDJI        FAIR      64  54  68 CALM      30.02R
PARK RAPIDS    FAIR      63  57  81 SW3       30.03R
ELBOW LAKE     FAIR      63  59  87 N5        30.03F
WADENA         FAIR      61  55  82 CALM      30.04R
DETROIT LAKES  FAIR      64  52  63 CALM      30.04S
MOORHEAD       FAIR      64  54  68 S3        30.02S
FERGUS FALLS   FAIR      64  57  77 CALM      30.03R
MORRIS MN      FAIR      66  63  88 N7        30.02R
STAPLES        FAIR      61  55  82 CALM      30.04R
$$
  *****  WEATHER ELSEWHERE ACROSS MINNESOTA  *****

CITY           SKY/WX    TMP DP  RH WIND       PRES   REMARKS
DULUTH         FAIR      64  56  75 NW8       30.01R
INTRNTL FALLS  FAIR      53  50  89 SW3       29.97R
ELY            FAIR      61  54  77 CALM      29.99R
CLOQUET        FAIR      64  54  68 CALM      30.02R
WHEATON        FAIR      64  59  82 CALM      30.05R
BRAINERD       FAIR      63  60  90 CALM      30.02R
HIBBING        FAIR      62  54  74 W5        30.00R
ALEXANDRIA     FAIR      64  60  87 N3        30.05R
SAINT CLOUD    FAIR      66  61  84 CALM      30.01R
MINNEAPOLIS    FAIR      75  65  70 NW10      29.99R
$$

  *****  WEATHER ACROSS SOUTH DAKOTA  *****

CITY           SKY/WX    TMP DP  RH WIND       PRES   REMARKS
SIOUX FALLS    MOCLDY    72  63  73 NE8       30.00R
BROOKINGS      CLOUDY    68  58  70 NE8       30.02S
WATERTOWN      FAIR      60  54  80 N6        30.03R
HURON          LGT RAIN  65  58  78 NE5       30.00R
SISSETON         N/A     63  61  93 NW7       30.02R
ABERDEEN       MOCLDY    61  57  87 NE3       30.04R
MITCHELL       FAIR      70  61  73 NE8       29.99R
PIERRE         FAIR      66  48  52 NE8       29.99R
MOBRIDGE       CLOUDY    65  53  65 E9        30.01S
RAPID CITY     FAIR      74  52  46 SE15      29.98S
$$

  *****  SOME WEATHER IN NEARBY STATES *****

CITY           SKY/WX    TMP DP  RH WIND       PRES   REMARKS
GLASGOW MT     FAIR      76  37  24 NW13      29.89R
GREAT FALLS MT FAIR      71  27  19 N7        30.01R
CHEYENNE WY    FAIR      72  49  44 SE8       30.16R
SCOTTSBLUFF NE FAIR      79  60  52 SE10      30.00R
OMAHA NE       FAIR      77  69  76 E7        29.94S
DES MOINES IA  MOCLDY    74  67  78 S5        29.99R
DAVENPORT IA   FAIR      71  69  93 NE8       30.01R
CHICAGO IL     CLOUDY    80  70  71 S10       30.03R
EAU CLAIRE WI  FAIR      74  68  81 S6        29.97R
LA CROSSE WI   FAIR      80  67  64 S10       29.98R
$$

  *****  SOME NATIONAL WEATHER *****

CITY           SKY/WX    TMP DP  RH WIND       PRES   REMARKS
LA GUARDIA NY  FAIR      80  62  54 NW7       30.13R
RALEIGH NC     FAIR      82  69  64 SE5       30.16R
ATLANTA GA     FAIR      85  67  54 SE5       30.13R
NEW ORLEANS LA FAIR      86  75  69 SE7       30.03R HX  95
OKLAHOMA CITY  FAIR      82  70  66 S8        29.98R
ALBUQUERQUE NM MOCLDY    72  51  47 CALM      30.14R
SALT LAKE CITY FAIR      89  42  19 N8        29.95R
LOS ANGELES CA MOCLDY    68  61  78 W14       29.89S
BOISE ID       FAIR      81  34  18 NW10      29.96S
SEATTLE WA     FAIR      73  52  47 N12       30.10S
$$

*** WEATHER ACROSS MANITOBA...SASKATCHEWAN AND ONTARIO ***
                ***ONTARIO***

CITY           SKY/WX    TMP DP  RH WIND       PRES   REMARKS
GERALDTON      PTCLDY    63  63 100 SW3       29.85R
THUNDER BAY    PTCLDY    64  55  72 W6        29.89R
SIOUX LOOKOUT  PTCLDY    57  48  72 W3        29.91R
TORONTO        PTCLDY    72  61  68 W7        30.09R
BIG TROUT LK   CLEAR     63  48  59 W13G23    29.69S
PICKLE LAKE    MOCLDY    68  45  42 W7        29.83R
DRYDEN         CLEAR     64  46  52 W6        29.93R
KENORA         PTCLDY    66  43  42 W5        29.96R
$$
                *** MANITOBA***

CITY           SKY/WX    TMP DP  RH WIND       PRES   REMARKS
BRANDON        MOCLDY    61  50  67 SW8       29.97R
DAUPHIN        PTCLDY    59  46  63 W8        29.92R
ISLAND LAKE    MOCLDY    64  48  55 W16       29.76
PILOT MOUND      N/A     63  45  51 NW3         N/A
THE PAS        PTCLDY    61  46  59 SW5       29.78S
THOMPSON       PTCLDY    55  50  82 W8        29.69R
WINNIPEG       PTCLDY    68  45  42 SW5       29.94R
LYNN LAKE      PTCLDY    55  48  76 MISG      29.67S
CHURCHILL      LGT RAIN  52  52 100 E12       29.56R FOG
GILLAM         MOCLDY    64  52  63 NW15G25   29.59R
$$
                ***SASKATCHEWAN***

CITY           SKY/WX    TMP DP  RH WIND       PRES   REMARKS
ESTEVAN        CLOUDY    61  41  48 E8        29.96S
KINDERSLEY     CLOUDY    63  41  45 N9        29.96R
LLOYDMINSTER   MOCLDY    57  45  62 W12G17    29.93R
PRINCE ALBERT  PTCLDY    59  45  58 W7        29.88R
REGINA         MOCLDY    66  34  30 SE16      29.90F
YORKTON        CLOUDY    61  46  59 SW7       29.94S
N. BATTLEFORD  PTCLDY    59  45  58 W9        29.94S
LA RONGE       PTCLDY    61  45  55 SW12      29.79R
SASKATOON      MOCLDY    61  45  55 W6        29.93S
SWIFT CURRENT  MOCLDY    66  36  32 N15       29.88R
$$
NOTE: THESE ARE AUTOMATED STATIONS WITH LIMITED QUALITY CONTROL
      "FAIR" INDICATES FEW OR NO CLOUDS BELOW 12,000 FEET WITH NO
      SIGNIFICANT WEATHER AND/OR OBSTRUCTIONS TO VISIBILITY.
      SKY/WX - SKY CONDITION AND SIGNIFICANT WEATHER.
      TMP - AIR TEMPERATURE.    DP   - DEWPOINT TEMPERATURE.
      RH  - RELATIVE HUMIDITY.  PRES - PRESSURE.
      HX  - HEAT INDEX.         WCI  - WIND CHILL INDEX.
$




USA.gov is the U.S. government's official web portal to all federal, state and local government web resources and services.